Regional Weather Roundup
Issued by NWS

Home | Current Version | Previous Version | Graphics & Text | Print | Product List | Glossary On
Versions: 1 2 3 4 5 6 7 8 9 10 11 12 13 14 15 16 17 18 19 20 21 22 23 24 25 26 27 28 29 30 31 32 33 34 35 36 37 38 39 40 41 42 43 44 45 46 47 48 49 50
000
ASUS43 KMPX 271901
RWRMN
WEATHER ROUNDUP FOR MINNESOTA
NATIONAL WEATHER SERVICE TWIN CITIES/CHANHASSEN MN
100 PM CST FRI FEB 27 2015


NOTE: "FAIR" INDICATES FEW OR NO CLOUDS BELOW 12,000 FEET WITH NO
SIGNIFICANT WEATHER AND/OR OBSTRUCTIONS TO VISIBILITY. N/A MEANS
CURRENT SKY AND/OR WEATHER CONDITIONS ARE NOT AVAILABLE.

MNZ060>063-068>070-272000-
   Twin Cities Metro

CITY           SKY/WX    TMP DP  RH WIND       PRES   REMARKS
TWIN CITIES    SUNNY     12  -4  48 SW9       30.54F WCI   0
ST PAUL        SUNNY     14  -2  49 SW9       30.56F WCI   2
CRYSTAL        SUNNY     15   0  51 W10       30.53F WCI   2
BLAINE         SUNNY     16   0  48 W10       30.52F WCI   3
EDEN PRAIRIE   SUNNY     13  -2  51 SW10      30.54F WCI   0
SOUTH ST PAUL  SUNNY     14  -1  51 W6        30.55F WCI   5
LAKE ELMO      FAIR      14   1  57 SW7       30.54F WCI   4
$$
MNZ001>005-007-008-013>017-022>024-027-028-272000-
   Northwest Minnesota

CITY           SKY/WX    TMP DP  RH WIND       PRES   REMARKS
BEMIDJI        SUNNY     13  -5  44 W8        30.38F WCI   2
HALLOCK        SUNNY      9   0  66 S13       30.39F WCI  -7
ROSEAU         SUNNY     10   0  61 SW12      30.36F WCI  -4
WARROAD        SUNNY     10  -4  52 SW14      30.35F WCI  -5
THIEF RVR FALL SUNNY      7  -2  66 SW12      30.41F WCI  -9
CROOKSTON      SUNNY     10   3  72 SW9       30.44F WCI  -2
FOSSTON        SUNNY     10   1  67 SW12      30.41F WCI  -4
DETROIT LAKES  SUNNY     12  -4  48 W8        30.43F WCI   1
MOORHEAD       FAIR      16   0  48 W10G17    30.47F WCI   3
PARK RAPIDS    SUNNY     14  -4  44 SW5       30.39F WCI   6
MAHNOMEN       FAIR      11   3  70 SW10      30.43F WCI  -3
$$
MNZ006-009>011-018-025>026-272000-
   North Central Minnesota

CITY           SKY/WX    TMP DP  RH WIND       PRES   REMARKS
BAUDETTE       SUNNY     15  -6  39 W10       30.33F WCI   2
FLAG ISLAND    SUNNY      9   0  66 S8        30.30F WCI  -4
INTL FALLS     SUNNY     15  -8  35 W9        30.34F WCI   3
WASKISH        SUNNY     12  -2  52 SW13      30.38F WCI  -3
BIG FORK       SUNNY     18  -8  32 SW9       30.36F WCI   6
LONGVILLE      SUNNY     18  -8  32 SW5       30.40F WCI  11
GRAND RAPIDS   SUNNY     12  -4  48 SW7       30.37F WCI   2
CRANE LAKE     SUNNY     14 -13  29 W8        30.37F WCI   3
ORR            SUNNY     16 -11  29 W7        30.32F WCI   6
COOK           SUNNY     16  -9  32 W10G16    30.35F WCI   3
WALKER         FAIR      14  -6  39 W7        30.39F WCI   4
$$
MNZ012-019>021-037-272000-
   Northeast Minnesota

CITY           SKY/WX    TMP DP  RH WIND       PRES   REMARKS
DULUTH         SUNNY     14  -6  40 W14       30.38F WCI  -1
ELY            SUNNY     16 -11  29 W9        30.33F WCI   4
HIBBING        MIX PCPN  15  -9  33 W8        30.37F WCI   4
EVELETH        SUNNY     14  -6  41 W9        30.37F WCI   2
DULUTH HARBOR  SUNNY     16  -2  45 SW8       30.46F WCI   5
TWO HARBORS    SUNNY     19  -2  38 W12       30.37F WCI   7
SILVER BAY     SUNNY     19  -9  27 W7        30.36S WCI  10
GRAND MARAIS     N/A     18   4  54 SW21      30.37F WCI   1
G MARAIS ARPRT SUNNY     16 -13  27 W6        30.27F WCI   7
$$
MNZ029>031-032-039>041-046>048-054>057-064-272000-
   West Central Minnesota

CITY           SKY/WX    TMP DP  RH WIND       PRES   REMARKS
FERGUS FALLS   SUNNY     10  -2  56 SW7       30.51F WCI   0
WHEATON        SUNNY     10  -2  56 SW5       30.52F WCI   2
MORRIS         SUNNY     14   0  52 SW5       30.48F WCI   6
ALEXANDRIA     SUNNY    N/A N/A N/A SW6       30.46F
ELBOW LAKE     FAIR       7   0  70 W3        30.48F
WADENA         SUNNY     10  -2  56 SW9       30.43F WCI  -2
GLENWOOD       SUNNY     10   0  61 SW9       30.48F WCI  -2
APPLETON       SUNNY     14  -2  48 SW6       30.52F WCI   5
BENSON         SUNNY     12   0  57 SW6       30.51F WCI   3
ORTONVILLE     SUNNY     12   0  57 SW6       30.49F WCI   3
MADISON        SUNNY     14   0  52 SW5       30.51F WCI   6
WILLMAR        FAIR      10  -2  56 W7        30.52F WCI   0
$$
MNZ033>034-036-042>043-049>051-058-059-272000-
   Central Minnesota

CITY           SKY/WX    TMP DP  RH WIND       PRES   REMARKS
ST CLOUD       SUNNY     13  -3  49 SW7       30.49F WCI   3
SAUK CENTRE    FAIR      13  -3  50 W10       30.47F WCI   0
PAYNESVILLE    SUNNY     10  -7  47 S8        30.50F WCI  -3
AITKIN         SUNNY     18 -11  27 SW7       30.42F WCI   8
PINE RIVER     SUNNY     16  -4  41 SW8       30.44F WCI   5
BRAINERD       SUNNY     14  -7  38 SW8       30.44F WCI   3
STAPLES        SUNNY     16  -6  38 SW8       30.43F WCI   5
LONG PRAIRIE   FAIR      14  -2  48 SW9       30.46F WCI   2
LITTLE FALLS   SUNNY     14  -6  41 W6        30.48F WCI   5
LITCHFIELD     SUNNY      9  -2  61 W8        30.52F WCI  -4
BUFFALO        SUNNY     12  -2  52 SW7       30.54F WCI   2
MAPLE LAKE     SUNNY     14   1  57 SW6       30.52F WCI   5
$$
MNZ037-044-045-052-053-272000-
   East Central Minnesota

CITY           SKY/WX    TMP DP  RH WIND       PRES   REMARKS
PRINCETON      SUNNY     16   0  48 SW6       30.50F WCI   7
MORA           SUNNY     14  -2  48 W7        30.50F WCI   4
CAMBRIDGE      SUNNY     14   0  52 W7        30.49F WCI   4
RUSH CITY      SUNNY     13  -4  46 SW7       30.51F WCI   3
MOOSE LAKE     SUNNY     18  -6  35 W7        30.43F WCI   8
HINCKLEY       FAIR      14   0  52 W8        30.48F WCI   3
CLOQUET        SUNNY     14  -9  34 SW12      30.40F WCI   0
MCGREGOR       SUNNY     16  -4  41 S9        30.43F WCI   4
$$
MNZ071>073-080-081-089-090-097-098-272000-
   Southwest Minnesota

CITY           SKY/WX    TMP DP  RH WIND       PRES   REMARKS
MONTEVIDEO     SUNNY     16   1  53 W5        30.53F WCI   9
GRANITE FALLS  SUNNY     12   1  61 SW5       30.54F WCI   4
CANBY          SUNNY     13   0  55 W7        30.51F WCI   3
MARSHALL       SUNNY     10   0  61 W10       30.52F WCI  -3
REDWOOD FALLS  SUNNY     10  -1  61 SW10      30.53F WCI  -4
OLIVIA         SUNNY     10   0  61 W6        30.52F WCI   1
PIPESTONE      SUNNY      9   0  66 W8        30.47F WCI  -4
WINDOM         SUNNY     10   0  61 W9        30.50F WCI  -2
WORTHINGTON    SUNNY     25  -6  26 W10       30.51F WCI  15
JACKSON        SUNNY     10   0  61 W8        30.51F WCI  -1
TRACY          SUNNY     13   0  56 W5        30.51F WCI   5
SLAYTON        SUNNY     10  -2  59 SW6       30.49F WCI   0
$$
MNZ065>067-074>077-082>085-091>093-272000-
   South Central Minnesota

CITY           SKY/WX    TMP DP  RH WIND       PRES   REMARKS
MANKATO        SUNNY      9  -6  52 W8        30.55F WCI  -4
NEW ULM        SUNNY      9  -4  56 W8        30.54F WCI  -4
ST JAMES       SUNNY     12  -2  52 W6        30.56F WCI   3
FAIRMONT       SUNNY     10   0  61 W7        30.53F WCI   0
GLENCOE        SUNNY     11   1  63 SW5       30.54F WCI   3
FARIBAULT      SUNNY      9  -2  61 W8        30.55F WCI  -4
OWATONNA       SUNNY      7  -2  66 SW6       30.54F WCI  -3
WASECA         SUNNY      9   0  66 W7        30.57F WCI  -3
ALBERT LEA     SUNNY      9   0  66 W5        30.53F WCI   0
$$
MNZ078>079-086>088-094>096-272000-
   Southeast Minnesota

CITY           SKY/WX    TMP DP  RH WIND       PRES   REMARKS
ROCHESTER      SUNNY      4  -4  69 SW10      30.53F WCI -11
RED WING       SUNNY     12  -2  52 W12       30.56F WCI  -2
STANTON        SUNNY     11  -1  57 W9        30.55F WCI  -1
DODGE CENTER   SUNNY      7  -2  66 W12       30.52F WCI  -9
WINONA         SUNNY     12  -4  48 W6        30.59F WCI   3
AUSTIN         SUNNY      7  -2  66 W6        30.54F WCI  -3
PRESTON        SUNNY      5  -5  63 W8        30.54F WCI  -9
$$
ABBREVIATIONS USED IN REMARKS
   TC - TEMPERATURES IN CELSIUS
  WCI - WIND CHILL INDEX
   HX - HEAT INDEX
  VSB - VISIBILITY
$$


USA.gov is the U.S. government's official web portal to all federal, state and local government web resources and services.